Regional Weather Roundup
Issued by NWS

Home | Current Version | Previous Version | Text Only | Print | Product List | Glossary Off
Versions: 1 2 3 4 5 6 7 8 9 10 11 12 13 14 15 16 17 18 19 20 21 22 23 24 25 26 27 28 29 30 31 32 33 34 35 36 37 38 39 40 41 42 43 44 45 46 47 48 49 50

000
ASUS45 KPSR 070710
RWRAZ

ARIZONA HOURLY REGIONAL WEATHER ROUNDUP
NATIONAL WEATHER SERVICE PHOENIX AZ
1200 AM MST SUN FEB 07 2016

NOTE: FAIR INDICATES FEW OR NO CLOUDS BELOW 12,000 FEET WITH NO
SIGNIFICANT WEATHER AND/OR OBSTRUCTIONS TO VISIBILITY.

AZZ001>003-036-070800-
NORTHWEST ARIZONA

CITY           SKY/WX    TMP DP  RH WIND       PRES   REMARKS
BULLHEAD CITY  CLEAR     59  25  27 NE22G28   30.27S
KINGMAN        CLEAR     41  22  46 NE6       30.34R
$$

AZZ004>008-015-016-018-070800-
NORTH CENTRAL ARIZONA

CITY           SKY/WX    TMP DP  RH WIND       PRES   REMARKS
GRAND CANYON   CLEAR     22  16  78 NE3       30.42S
WILLIAMS       CLEAR     27  12  54 SE7       30.45R WCI  19
PRESCOTT       CLEAR     35  20  54 NW7       30.36R WCI  29
FLAGSTAFF      CLEAR     18  13  80 CALM      30.42R
PAYSON         CLEAR     43   5  21 E5        30.34S
PAGE           CLEAR     29  23  78 E3        30.46S
$$

AZZ009>014-017-070800-
NORTHEAST ARIZONA

CITY           SKY/WX    TMP DP  RH WIND       PRES   REMARKS
WINSLOW        CLEAR     22  15  75 SW5       30.43R WCI  16
SAINT JOHNS    CLEAR     25  15  66 CALM      30.39R
WINDOW ROCK    CLEAR     23   0  36 CALM      30.42R
SHOW LOW       LGT RAIN  25  14  63 CALM      30.41R
$$

AZZ023-070800-
GREATER PHOENIX AREA

CITY           SKY/WX    TMP DP  RH WIND       PRES   REMARKS
PHOENIX        CLEAR     54  25  32 CALM      30.18R
BUCKEYE        CLEAR     50  21  32 N8        30.21F
LUKE AFB       CLEAR     50  26  39 N7        30.18S
DEER VALLEY    CLEAR     53  23  31 NE6       30.20R
SCOTTSDALE     CLEAR     53  24  32 CALM      30.21S
MESA-GATEWAY   CLEAR     48  27  43 S3        30.20S
$$

AZZ027-028-070800-
SOUTHWEST MARICOPA COUNTY AND PINAL COUNTY

CITY           SKY/WX    TMP DP  RH WIND       PRES   REMARKS
CASA GRANDE    CLEAR     46  19  34 N8        30.19S
GILA BEND      FAIR      45  22  40 SE6       30.18S
$$

AZZ503-504-507>509-070800-
SOUTHEAST ARIZONA

CITY           SKY/WX    TMP DP  RH WIND       PRES   REMARKS
TUCSON         PTCLDY    55   7  14 SE9       30.23S
DAVIS-MONTHAN  PTCLDY    51  10  19 E13       30.21S
NOGALES        PTCLDY    39  10  30 E3        30.24S
SIERRA VISTA   PTCLDY    41  13  32 CALM      30.29R
DOUGLAS        CLEAR     27   6  41 CALM      30.28F
SAFFORD        CLEAR     35  15  44 E3        30.29S
$$

AZZ020-021-025-026-031-070800-
SOUTHWEST ARIZONA

CITY           SKY/WX    TMP DP  RH WIND       PRES   REMARKS
YUMA           CLEAR     59  22  24 NW9       30.19S
$$

CAZ031-033-041-043-047-048-061-070800-
SOUTHERN CALIFORNIA

CITY           SKY/WX    TMP DP  RH WIND       PRES   REMARKS
DOWNTOWN L.A.  CLEAR     58  32  37 CALM      30.16S
L.A. AIRPORT   CLEAR     64  27  24 CALM      30.16S
SAN DIEGO      CLEAR     59  29  31 CALM      30.16S
BURBANK        CLEAR     54  26  34 CALM      30.16F
ONTARIO        CLEAR     55  28  35 N7        30.18S
RIVERSIDE      CLEAR     59  20  22 NE3       30.20S
PALM SPRINGS   CLEAR     63  20  19 W7        30.25R
EL CENTRO NAS  CLEAR     51  18  27 W10       30.23S
IMPERIAL       CLEAR     51  23  33 W8        30.21S
BLYTHE         CLEAR     55  24  30 CALM      30.24R
NEEDLES        CLEAR     56  23  27 NW9       30.28R
$$

NVZ020-UTZ003-070800-
SOUTHERN NEVADA-UTAH

CITY           SKY/WX    TMP DP  RH WIND       PRES   REMARKS
LAS VEGAS      CLEAR     47  27  45 SW3       30.31S
SALT LAKE CITY MOCLDY    29  21  72 SE7       30.50R WCI  22
$$

NMZ009-TXZ055-070800-
NEW MEXICO-WEST TEXAS

CITY           SKY/WX    TMP DP  RH WIND       PRES   REMARKS
ALBUQUERQUE    CLOUDY    38  14  37 N10G22    30.38R WCI  31
EL PASO        MOCLDY    34   9  35 N5        30.32R WCI  30
$$


........................KEY........................
SKY/WX - SKY CONDITION/WEATHER
TMP    - TEMPERATURE IN FAHRENHEIT
DP     - DEW POINT IN FAHRENHEIT
RH     - RELATIVE HUMIDITY IN PERCENT
WIND   - DIRECTION AND SPEED IN MILES PER HOUR (MPH)
VRB    - VARIABLE WIND DIRECTION
PRES   - MEAN SEA LEVEL PRESSURE IN INCHES OF MERCURY
         F - FALLING PRESSURE   R - RISING PRESSURE
         S - STEADY PRESSURE
VSB    - VISIBILITY IN MILES
HX     - HEAT INDEX IN FAHRENHEIT
WCI    - WIND CHILL INDEX IN FAHRENHEIT
TC     - TEMPERATURE IN CELSIUS WHICH IS ALSO KNOWN AS
         TEMPERATURE IN CENTIGRADE
AFB    - AIR FORCE BASE
         LUKE AFB IS LUKE AIR FORCE BASE
         DAVIS-MONTHAN IS DAVIS-MONTHAN AIR FORCE BASE
NAS    - NAVAL AIR STATION
         EL CENTRO NAS IS EL CENTRO NAVAL AIR STATION
N/A    - NOT AVAILABLE




USA.gov is the U.S. government's official web portal to all federal, state and local government web resources and services.